Hourly Weather Roundup
Issued by NWS Central Illinois

Home | Current Version | Previous Version | Text Only | Print | Product List | Glossary On
Versions: 1 2 3 4 5 6 7 8 9 10 11 12 13 14 15 16 17 18 19 20 21 22 23 24 25 26 27 28 29 30 31 32 33 34 35 36 37 38 39 40 41 42 43 44 45 46 47 48 49 50
000
NZUS43 KILX 261510
HWRILX

AREA WEATHER ROUNDUP
NATIONAL WEATHER SERVICE, LINCOLN IL
900 AM CST THU FEB 26 2015


CITY           SKY/WX    TMP DP  RH WIND       PRES   REMARKS
BLOOMINGTON    LGT SNOW  16  12  84 N13       30.17R FOG     WCI   2
CHAMPAIGN      LGT SNOW  20  14  77 N15       30.13R WCI   6
DECATUR        LGT SNOW  19  15  84 N14       30.15R FOG     WCI   6
FLORA          LGT SNOW  24  20  86 N10       30.11R WCI  13
GALESBURG      LGT SNOW  12   8  82 N15       30.24R WCI  -4
JACKSONVILLE   LGT SNOW  19  13  80 N15       30.21R WCI   4
LACON          PTSUNNY   15   8  74 N14G21    30.22R WCI   0
LAWRENCEVILLE  LGT SNOW  24  19  81 N12       30.09R WCI  13
LITCHFIELD     LGT SNOW  19  15  84 N14       30.16R WCI   5
$$


CITY           SKY/WX    TMP DP  RH WIND       PRES   REMARKS
LINCOLN        LGT SNOW  19  14  81 N10       30.21R WCI   7
MACOMB         MIX PCPN  13  10  87 NW17      30.27R WCI  -4
MATTOON        CLOUDY    20  15  81 N14       30.11R WCI   7
MT CARMEL AP   CLOUDY    30  23  74 NE9       30.08R HAZE    WCI  22
OLNEY-NOBLE AP LGT SNOW  25  21  86 N9        30.11R WCI  15
PARIS          CLOUDY    21  17  84 N9        30.12R WCI  10
PEORIA         LGT SNOW  16   9  74 N12G20    30.22R WCI   3
PONTIAC        LGT SNOW  19  14  82 N15       30.18R WCI   4
RANTOUL        CLOUDY    20  16  82 NE10      30.13R WCI   9
ROBINSON       CLOUDY    23  19  83 N13       30.11R WCI  11
SPRINGFIELD    LGT SNOW  18  13  80 N15       30.19R WCI   4
TAYLORVILLE    LGT SNOW  19  14  79 N16       30.17R WCI   5
$$

...REGIONAL REPORTS...


CITY           SKY/WX    TMP DP  RH WIND       PRES   REMARKS
CHICAGO O`HARE LGT SNOW  16   9  74 NE15G21   30.20R BLWGSNOWWCI   1
KANKAKEE       CLOUDY    18  13  81 NE9       30.17R WCI   7
MOLINE         CLOUDY    11   0  61 N8        30.27R WCI  -1
MOUNT VERNON   CLOUDY    27  19  74 N6        30.11R WCI  20
PITTSFIELD     LGT SNOW  18  13  82 NW14      30.24R WCI   4
QUINCY         LGT SNOW  13   8  81 NW17      30.25R WCI  -4
ROCKFORD       CLOUDY     9   0  67 N13       30.26R WCI  -7
$$


CITY           SKY/WX    TMP DP  RH WIND       PRES   REMARKS
BURLINGTON     MIX PCPN  11   2  67 N13       30.28R WCI  -4
CEDAR RAPIDS   SUNNY      1  -8  66 N14       30.31R WCI -17
DES MOINES     MOSUNNY    4  -9  55 N14       30.41R WCI -14
KIRKSVILLE     SUNNY     11   2  67 NW13G22   30.32R WCI  -4
OTTUMWA        SUNNY      4  -6  63 N20       30.35R WCI -17
ST LOUIS       LGT SNOW  21  15  78 N15       30.20R WCI   8
$$


CITY           SKY/WX    TMP DP  RH WIND       PRES   REMARKS
TERRE HAUTE    CLOUDY    20  13  74 NE10      30.09S WCI   9
EVANSVILLE     CLOUDY    29  17  61 N9        30.07R WCI  20
INDIANAPOLIS   LGT SNOW  16  10  77 NE14      30.07S WCI   2
LAFAYETTE      CLOUDY    18  12  77 N10       30.13R WCI   6
MADISON        MOSUNNY    3  -7  63 N10       30.29R WCI -12
MILWAUKEE      PTSUNNY    9  -1  64 N12       30.24R WCI  -6
$$




USA.gov is the U.S. government's official web portal to all federal, state and local government web resources and services.